Regional Weather Roundup
Issued by NWS

Home | Current Version | Previous Version | Text Only | Print | Product List | Glossary Off
Versions: 1 2 3 4 5 6 7 8 9 10 11 12 13 14 15 16 17 18 19 20 21 22 23 24 25 26 27 28 29 30 31 32 33 34 35 36 37 38 39 40 41 42 43 44 45 46 47 48 49 50

000
ASUS43 KMPX 052101
RWRMN
WEATHER ROUNDUP FOR MINNESOTA
NATIONAL WEATHER SERVICE TWIN CITIES/CHANHASSEN MN
300 PM CST FRI FEB 05 2016


NOTE: "FAIR" INDICATES FEW OR NO CLOUDS BELOW 12,000 FEET WITH NO
SIGNIFICANT WEATHER AND/OR OBSTRUCTIONS TO VISIBILITY. N/A MEANS
CURRENT SKY AND/OR WEATHER CONDITIONS ARE NOT AVAILABLE.

MNZ060>063-068>070-052200-
   Twin Cities Metro

CITY           SKY/WX    TMP DP  RH WIND       PRES   REMARKS
TWIN CITIES    CLOUDY    28  14  55 SW12      30.24F WCI  18
ST PAUL        MOSUNNY   26  17  68 S9        30.26F WCI  17
CRYSTAL        CLOUDY    29  15  56 S13G21    30.21F WCI  19
BLAINE         MOSUNNY   30  16  55 S15       30.22S WCI  19
LAKEVILLE      CLOUDY    25  18  74 S7        30.23F WCI  17
EDEN PRAIRIE   CLOUDY    28  16  60 S12       30.21F WCI  18
SOUTH ST PAUL  MOSUNNY   28  17  64 S9        30.24F WCI  19
LAKE ELMO      FAIR      27  18  69 S9        30.25S WCI  17
$$
MNZ001>005-007-008-013>017-022>024-027-028-052200-
   Northwest Minnesota

CITY           SKY/WX    TMP DP  RH WIND       PRES   REMARKS
BEMIDJI        CLOUDY    28  21  75 NW10      30.08R WCI  19
HALLOCK        SUNNY     21  16  79 W3        30.12F
ROSEAU         PTSUNNY   21  16  79 NW5       30.10F WCI  15
WARROAD        MOSUNNY   21  16  79 SW7       30.09F WCI  13
THIEF RVR FALL SUNNY     23  16  74 W7        30.12F WCI  15
CROOKSTON      SUNNY     21  18  86 NW7       30.15S WCI  13
FOSSTON        CLOUDY    23  18  80 SW9       30.12R WCI  13
DETROIT LAKES  CLOUDY    28  23  80 W7        30.12R WCI  21
MOORHEAD       CLOUDY    27  23  86 SW5       30.15R WCI  21
PARK RAPIDS    CLOUDY    28  21  75 SW10      30.09R WCI  19
MAHNOMEN       CLOUDY    25  22  88 W8        30.11S WCI  16
$$
MNZ006-009>011-018-025>026-052200-
   North Central Minnesota

CITY           SKY/WX    TMP DP  RH WIND       PRES   REMARKS
BAUDETTE       SUNNY     24  14  65 W5        30.06F WCI  18
FLAG ISLAND    PTSUNNY   18  14  86 SE3       30.08S
INTL FALLS     CLOUDY    25  14  63 W5        30.06F WCI  19
WASKISH        CLOUDY    25  18  74 SW8       30.08F WCI  16
LONGVILLE      CLOUDY    27  19  74 SW5       30.10R WCI  21
GRAND RAPIDS   CLOUDY    27  16  63 SW9       30.09S WCI  17
CRANE LAKE     CLOUDY    23  12  63 S5        30.11F WCI  17
ORR            CLOUDY    25  12  58 CALM      30.06S
COOK           CLOUDY    23  14  68 SW2       30.08F
WALKER         CLOUDY    26  19  75 SW7       30.08S WCI  18
$$
MNZ012-019>021-037-052200-
   Northeast Minnesota

CITY           SKY/WX    TMP DP  RH WIND       PRES   REMARKS
DULUTH         PTSUNNY   25  11  55 SW15G23   30.11F WCI  13
ELY            CLOUDY    23  12  63 SW9       30.08S WCI  13
HIBBING        CLOUDY    25  11  55 SW6       30.07F WCI  18
EVELETH        MIX PCPN  27  12  54 SW12      30.09F WCI  16
DULUTH HARBOR  MOSUNNY   28  16  59 SW14      30.17F WCI  17
TWO HARBORS    CLOUDY    27  16  63 SW10      30.12F WCI  17
SILVER BAY     CLOUDY    23  14  68 S8        30.12F WCI  14
GRAND MARAIS     N/A     25  17  72 SW14      30.18F WCI  13
G MARAIS ARPRT LGT SNOW  18  12  79 S8        30.09F WCI   7
$$
MNZ029>031-032-039>041-046>048-054>057-064-052200-
   West Central Minnesota

CITY           SKY/WX    TMP DP  RH WIND       PRES   REMARKS
FERGUS FALLS   CLOUDY    27  21  80 S7        30.15F WCI  19
WHEATON        CLOUDY    30  27  86 W5        30.16R WCI  25
MORRIS         PTSUNNY   28  23  80 S5        30.13S WCI  23
ALEXANDRIA     PTSUNNY   25  18  74 S12       30.12F WCI  14
ELBOW LAKE     CLOUDY    24  20  85 S6        30.13S FOG     WCI  17
WADENA         CLOUDY    27  19  74 SW5       30.11S WCI  21
GLENWOOD       PTSUNNY   25  19  80 S7        30.13F WCI  17
APPLETON       CLOUDY    28  21  74 SW6       30.14F WCI  22
BENSON         FLURRIES  28  19  69 CALM      30.14F
ORTONVILLE     MOSUNNY   30  25  80 W5        30.13F WCI  25
MADISON        LGT SNOW  30  21  69 W3        30.14F
WILLMAR        FAIR      28  21  74 SW13      30.16F WCI  18
$$
MNZ033>034-036-042>043-049>051-058-059-052200-
   Central Minnesota

CITY           SKY/WX    TMP DP  RH WIND       PRES   REMARKS
ST CLOUD       CLOUDY    25  13  60 S13       30.18F WCI  14
SAUK CENTRE    FLURRIES  25  17  73 S12       30.14F WCI  14
PAYNESVILLE    CLOUDY    25  17  69 S9        30.17R WCI  16
AITKIN         CLOUDY    28  10  47 S12G20    30.10F WCI  18
PINE RIVER     CLOUDY    27  18  69 SW8       30.14S WCI  18
BRAINERD       PTSUNNY   27  14  58 SW16      30.11F WCI  15
STAPLES        MOSUNNY   27  16  63 SW8       30.11S WCI  18
LONG PRAIRIE   CLOUDY    27  18  69 S10       30.13F WCI  17
LITTLE FALLS   CLOUDY    28  14  54 S10       30.15F WCI  19
LITCHFIELD     CLOUDY    27  18  69 S5        30.17F WCI  21
BUFFALO        CLOUDY    28  14  56 S8        30.21F WCI  19
MAPLE LAKE     CLOUDY    28  17  64 S8        30.20F WCI  19
$$
MNZ037-044-045-052-053-052200-
   East Central Minnesota

CITY           SKY/WX    TMP DP  RH WIND       PRES   REMARKS
PRINCETON      CLOUDY    28  16  59 S9        30.19F WCI  20
MORA           SUNNY     28  14  54 S12       30.20F WCI  18
CAMBRIDGE      CLOUDY    28  16  59 S8        30.19F WCI  20
RUSH CITY      CLOUDY    25  15  66 S10       30.21F WCI  15
MOOSE LAKE     MOSUNNY   27  12  54 S13G20    30.13F WCI  16
HINCKLEY       MOCLDY    27  18  69 S12       30.18F WCI  16
CLOQUET        MOSUNNY   27  10  50 S9G20     30.12F WCI  17
MCGREGOR       CLOUDY    28  14  54 SW14G22   30.12F WCI  17
$$
MNZ071>073-080-081-089-090-097-098-052200-
   Southwest Minnesota

CITY           SKY/WX    TMP DP  RH WIND       PRES   REMARKS
MONTEVIDEO     CLOUDY    28  21  74 W7        30.17F WCI  21
GRANITE FALLS  CLOUDY    29  23  79 SW12      30.18S WCI  19
CANBY          MOSUNNY   32  25  74 SW9       30.16S WCI  25
MARSHALL       CLOUDY    28  22  78 SW9       30.16S WCI  19
REDWOOD FALLS  CLOUDY    28  22  78 SW14      30.18S WCI  17
OLIVIA         CLOUDY    30  25  80 SW16      30.16S WCI  19
PIPESTONE        N/A     28  21  74 SW12      30.12S WCI  18
WINDOM         CLOUDY    27  21  80 S14G22    30.16S WCI  15
WORTHINGTON    CLOUDY    27  21  80 S17G23    30.17R WCI  14
JACKSON        CLOUDY    28  21  74 S17       30.17F HAZE    WCI  16
TRACY          CLOUDY    28  24  86 SW17G25   30.14S WCI  16
SLAYTON        CLOUDY    26  25  96 SW16      30.14R FOG     WCI  14
$$
MNZ065>067-074>077-082>085-091>093-052200-
   South Central Minnesota

CITY           SKY/WX    TMP DP  RH WIND       PRES   REMARKS
MANKATO        CLOUDY    25  16  68 S15       30.22S WCI  12
NEW ULM        CLOUDY    25  18  74 S14       30.20S WCI  13
ST JAMES       LGT SNOW  27  23  86 S16       30.21S WCI  14
FAIRMONT       CLOUDY    25  18  74 S16       30.20F WCI  12
GLENCOE        CLOUDY    27  20  77 S13       30.20R WCI  16
FARIBAULT      CLOUDY    27  18  69 S8        30.24F WCI  18
OWATONNA       CLOUDY    25  16  68 S13       30.23F WCI  13
WASECA         CLOUDY    23  18  80 S14       30.24F WCI  11
ALBERT LEA     CLOUDY    25  14  63 S9        30.24S WCI  15
$$
MNZ078>079-086>088-094>096-052200-
   Southeast Minnesota

CITY           SKY/WX    TMP DP  RH WIND       PRES   REMARKS
ROCHESTER      CLOUDY    20  14  77 S13       30.25F WCI   7
RED WING       CLOUDY    25  12  58 SE6       30.26F WCI  18
STANTON        CLOUDY    26  17  67 S7        30.23F WCI  19
DODGE CENTER   CLOUDY    21  16  79 S13       30.24F WCI   9
WINONA         CLOUDY    30  18  59 CALM      30.33S
AUSTIN         CLOUDY    21  16  79 S9        30.25F WCI  11
PRESTON        CLOUDY    20  14  76 S9        30.28F WCI  10
$$
ABBREVIATIONS USED IN REMARKS
   TC - TEMPERATURES IN CELSIUS
  WCI - WIND CHILL INDEX
   HX - HEAT INDEX
  VSB - VISIBILITY
$$



USA.gov is the U.S. government's official web portal to all federal, state and local government web resources and services.